Location: downtown San Diego
(32.7310°N, 117.1990°W)
Time: 15:00:28
(UTC-07:00)

ATLAS 2AS CENTAUR R/B - Pass Details

Date: 14 June 2018
Orbit: 910 x 1302 km, 63.7° (Epoch: 25 July)

Event Time Altitude Azimuth Distance (km) Brightness Sun altitude
Exits shadow 22:31:25 48° 147° (SSE) 1,583 3.1 -25.0°
Maximum altitude 22:32:53 54° 113° (ESE) 1,497 3.1 -25.2°
Drops below altitude 10° 22:40:39 10° 39° (NE) 3,307 5.4 -26.1°
Sets 22:43:35 0° 35° (NE) 4,290 6.1 -26.4°
